EN

Hourly Weather Vizhnica

Today, 30 October, Friday

Time Temperature Precipitation Wind Pressure Humidity
00:00 +9°C° 0 mm 2 mps 717 mmHg 88%
01:00 +9°C° 0 mm 2 mps 717 mmHg 89%
02:00 +8°C° 0 mm 1 mps 717 mmHg 92%
03:00 +9°C° 0 mm 1 mps 717 mmHg 90%
04:00 +8°C° 0 mm 2 mps 717 mmHg 91%
05:00 +10°C° 0 mm 1 mps 717 mmHg 90%
06:00 +9°C° 0 mm 2 mps 717 mmHg 91%
07:00 +7°C° 0.6 mm 5 mps 718 mmHg 100%
08:00 +5°C° 0.4 mm 5 mps 719 mmHg 100%
09:00 +5°C° 0.1 mm 5 mps 719 mmHg 100%
10:00 +5°C° 0.1 mm 5 mps 719 mmHg 100%
11:00 +6°C° 0.1 mm 4 mps 719 mmHg 97%
12:00 +6°C° 0.2 mm 4 mps 719 mmHg 98%
13:00 +7°C° 0.3 mm 2 mps 719 mmHg 95%
14:00 +8°C° 0 mm 3 mps 719 mmHg 91%
15:00 +8°C° 0.1 mm 3 mps 719 mmHg 89%
16:00 +8°C° 0 mm 3 mps 719 mmHg 89%
17:00 +7°C° 0 mm 2 mps 719 mmHg 95%
18:00 +7°C° 0 mm 1 mps 719 mmHg 96%
19:00 +7°C° 0 mm 1 mps 719 mmHg 95%
20:00 +7°C° 0 mm 1 mps 719 mmHg 93%
21:00 +7°C° 0 mm 1 mps 719 mmHg 94%
22:00 +6°C° 0 mm 2 mps 719 mmHg 93%
23:00 +6°C° 0 mm 2 mps 719 mmHg 91%

Tomorrow, 31 October, Saturday

Time Temperature Precipitation Wind Pressure Humidity
00:00 +6°C° 0 mm 2 mps 719 mmHg 89%
01:00 +5°C° 0 mm 2 mps 718 mmHg 89%
02:00 +6°C° 0 mm 2 mps 718 mmHg 90%
03:00 +6°C° 0 mm 2 mps 718 mmHg 90%
04:00 +6°C° 0 mm 2 mps 717 mmHg 91%
05:00 +5°C° 0.4 mm 2 mps 717 mmHg 100%
06:00 +6°C° 0.8 mm 1 mps 717 mmHg 100%
07:00 +6°C° 0.4 mm 1 mps 717 mmHg 100%
08:00 +6°C° 0.3 mm 1 mps 717 mmHg 100%
09:00 +5°C° 0.2 mm 2 mps 717 mmHg 100%
10:00 +5°C° 0.4 mm 2 mps 717 mmHg 100%
11:00 +4°C° 0.8 mm 3 mps 718 mmHg 100%
12:00 +5°C° 0.7 mm 2 mps 718 mmHg 100%
13:00 +6°C° 0.6 mm 1 mps 718 mmHg 100%
14:00 +7°C° 0.5 mm 1 mps 719 mmHg 100%
15:00 +5°C° 0.4 mm 3 mps 719 mmHg 100%
16:00 +5°C° 0.4 mm 3 mps 719 mmHg 100%
17:00 +5°C° 0 mm 4 mps 719 mmHg 97%
18:00 +4°C° 0 mm 3 mps 719 mmHg 100%
19:00 +4°C° 0 mm 3 mps 720 mmHg 100%
20:00 +4°C° 0 mm 3 mps 720 mmHg 100%
21:00 +3°C° 0.1 mm 4 mps 720 mmHg 100%
22:00 +3°C° 0 mm 4 mps 720 mmHg 100%
23:00 +3°C° 0.1 mm 4 mps 720 mmHg 100%

Day after tomorrow, 1 November, Sunday

Time Temperature Precipitation Wind Pressure Humidity
00:00 +2°C° 0.1 mm 5 mps 720 mmHg 100%
01:00 +1°C° 0.2 mm 4 mps 720 mmHg 100%
02:00 +1°C° 0.1 mm 4 mps 720 mmHg 100%
03:00 +1°C° 0 mm 4 mps 720 mmHg 100%
04:00 +1°C° 0 mm 4 mps 720 mmHg 100%
05:00 +1°C° 0.1 mm 5 mps 720 mmHg 99%
06:00 +1°C° 0.3 mm 5 mps 720 mmHg 100%
07:00 +1°C° 0.1 mm 5 mps 720 mmHg 98%
08:00 +1°C° 0 mm 5 mps 720 mmHg 98%
09:00 +2°C° 0 mm 6 mps 721 mmHg 99%
10:00 +2°C° 0 mm 5 mps 721 mmHg 96%
11:00 +3°C° 0 mm 5 mps 721 mmHg 96%
12:00 +5°C° 0 mm 5 mps 721 mmHg 96%
13:00 +5°C° 0 mm 5 mps 721 mmHg 96%
14:00 +6°C° 0 mm 4 mps 721 mmHg 95%
15:00 +5°C° 0 mm 4 mps 720 mmHg 95%
16:00 +5°C° 0 mm 4 mps 720 mmHg 96%
17:00 +4°C° 0 mm 3 mps 720 mmHg 98%
18:00 +5°C° 0 mm 2 mps 720 mmHg 99%
19:00 +4°C° 0 mm 2 mps 720 mmHg 99%
20:00 +4°C° 0 mm 2 mps 720 mmHg 99%
21:00 +5°C° 0 mm 1 mps 720 mmHg 96%
22:00 +5°C° 0 mm 1 mps 719 mmHg 97%
23:00 +4°C° 0 mm 1 mps 719 mmHg 98%

2 November, Monday

Time Temperature Precipitation Wind Pressure Humidity
00:00 +4°C° 0 mm 1 mps 719 mmHg 98%
01:00 +4°C° 0 mm 1 mps 719 mmHg 98%
02:00 +3°C° 0 mm 2 mps 719 mmHg 94%
03:00 +5°C° 0 mm 1 mps 719 mmHg 86%
04:00 +4°C° 0 mm 2 mps 719 mmHg 79%
05:00 +4°C° 0 mm 2 mps 718 mmHg 75%
06:00 +3°C° 0 mm 3 mps 718 mmHg 75%
07:00 +3°C° 0 mm 3 mps 718 mmHg 80%
08:00 +4°C° 0 mm 3 mps 718 mmHg 85%
09:00 +6°C° 0 mm 2 mps 719 mmHg 90%
10:00 +8°C° 0 mm 1 mps 719 mmHg 94%
11:00 +10°C° 0 mm 1 mps 719 mmHg 95%
12:00 +11°C° 0 mm 1 mps 720 mmHg 95%
13:00 +12°C° 0 mm 1 mps 719 mmHg 95%
14:00 +12°C° 0 mm 1 mps 719 mmHg 98%
15:00 +10°C° 0 mm 2 mps 719 mmHg 100%
16:00 +11°C° 0 mm 1 mps 719 mmHg 100%
17:00 +9°C° 0 mm 0 mps 719 mmHg 100%
18:00 +9°C° 0 mm 0 mps 719 mmHg 100%
19:00 +9°C° 0 mm 0 mps 719 mmHg 100%
20:00 +9°C° 0 mm 0 mps 720 mmHg 99%
21:00 +10°C° 0 mm 1 mps 720 mmHg 96%
22:00 +10°C° 0 mm 1 mps 720 mmHg 94%
23:00 +9°C° 0 mm 2 mps 720 mmHg 94%

3 November, Tuesday

Time Temperature Precipitation Wind Pressure Humidity
00:00 +9°C° 0 mm 2 mps 719 mmHg 93%
01:00 +9°C° 0 mm 2 mps 719 mmHg 93%
02:00 +9°C° 0 mm 2 mps 719 mmHg 92%
03:00 +9°C° 0 mm 2 mps 719 mmHg 92%
04:00 +9°C° 0 mm 2 mps 719 mmHg 91%
05:00 +9°C° 0 mm 2 mps 719 mmHg 90%
06:00 +10°C° 0 mm 1 mps 719 mmHg 93%
07:00 +8°C° 0.3 mm 0 mps 719 mmHg 100%
08:00 +9°C° 0.4 mm 1 mps 719 mmHg 100%
09:00 +10°C° 0.5 mm 1 mps 719 mmHg 100%
10:00 +10°C° 1 mm 1 mps 720 mmHg 100%
11:00 +10°C° 1.5 mm 1 mps 720 mmHg 100%
12:00 +11°C° 1.6 mm 1 mps 720 mmHg 100%
13:00 +10°C° 0.9 mm 0 mps 720 mmHg 100%
14:00 +10°C° 1 mm 0 mps 720 mmHg 100%
15:00 +10°C° 0.4 mm 0 mps 720 mmHg 100%
16:00 +10°C° 0 mm 0 mps 720 mmHg 100%
17:00 +11°C° 0 mm 1 mps 720 mmHg 100%
18:00 +10°C° 0 mm 0 mps 720 mmHg 100%
19:00 +10°C° 0 mm 0 mps 720 mmHg 100%
20:00 +10°C° 0 mm 0 mps 720 mmHg 100%
21:00 +9°C° 0.1 mm 0 mps 721 mmHg 100%
22:00 +9°C° 0 mm 0 mps 721 mmHg 100%
23:00 +9°C° 0.1 mm 0 mps 721 mmHg 100%

4 November, Wednesday

Time Temperature Precipitation Wind Pressure Humidity
00:00 +9°C° 0.1 mm 0 mps 721 mmHg 100%
01:00 +9°C° 0.1 mm 0 mps 721 mmHg 100%
02:00 +9°C° 0.1 mm 0 mps 721 mmHg 100%
03:00 +8°C° 0 mm 0 mps 721 mmHg 100%
04:00 +9°C° 0 mm 0 mps 721 mmHg 100%
05:00 +8°C° 0 mm 0 mps 721 mmHg 100%
06:00 +9°C° 0 mm 1 mps 721 mmHg 100%
07:00 +8°C° 0 mm 1 mps 722 mmHg 100%
08:00 +7°C° 0 mm 0 mps 722 mmHg 100%
09:00 +7°C° 0 mm 0 mps 722 mmHg 100%
10:00 +8°C° 0 mm 1 mps 723 mmHg 100%
11:00 +7°C° 0 mm 1 mps 723 mmHg 100%
12:00 +6°C° 0 mm 0 mps 723 mmHg 100%
13:00 +8°C° 0 mm 1 mps 723 mmHg 100%
14:00 +7°C° 0 mm 0 mps 723 mmHg 100%
15:00 +7°C° 0 mm 0 mps 724 mmHg 100%
16:00 +7°C° 0 mm 0 mps 724 mmHg 100%
17:00 +7°C° 0 mm 0 mps 724 mmHg 100%
18:00 +7°C° 0 mm 0 mps 724 mmHg 100%
19:00 +8°C° 0 mm 1 mps 724 mmHg 100%
20:00 +8°C° 0 mm 1 mps 725 mmHg 100%
21:00 +8°C° 0 mm 1 mps 725 mmHg 100%
22:00 +7°C° 0 mm 1 mps 725 mmHg 100%
23:00 +6°C° 0 mm 0 mps 725 mmHg 100%
Show more

We Need Your Consent

Meteoprog and our Service Providers may store and access personal data such as cookies, device identifiers or other similar technologies on your device and process such data to personalise content and ads, as well as provide social media features and to analyse the traffic.

  • Store and/or access information on your device

    Cookies, device identifiers or other information can be stored or accessed on your device for the purposes indicated above.

  • Personalised ads and content, ad and content measurement, audience insights, and products development

    Ads and content can be personalised based on a profile. More data can be added to better personalise ads and content. Ad and content performance can be measured. Insights about the audience who saw the ads and content can be derived. Such data can be used to develop or improve user’s experience, systems and software.

By clicking ‘I Agree’ you will allow the use of indicated cookies, device identifiers, web beacons or other similar technologies. Your settings can be changed in the browser on your device.

For certain purposes, legitimate interests may be relied on, rather than consent. You can read more about this in our Privacy and Cookie Policy.